TimeCST,TemperatureF,Dew PointF,Humidity,Sea Level PressureIn,VisibilityMPH,Wind Direction,Wind SpeedMPH,Gust SpeedMPH,PrecipitationIn,Events,Conditions,WindDirDegrees,DateUTC
12:00 AM,69,67,92,29.76,1,Calm,Calm,,,Fog,Patches of Fog,,2012-10-24 06:00:00
12:00 AM,69.8,68.0,94,29.92,5.0,Calm,Calm,-,N/A,Fog,Patches of Fog,0,2012-10-24 06:00:00
1:00 AM,69.8,68.0,94,29.90,3.1,Calm,Calm,-,N/A,,Light Drizzle,0,2012-10-24 07:00:00
1:24 AM,68.0,66.2,94,29.89,1.9,SW,1.2,-,N/A,,Mostly Cloudy,220,2012-10-24 07:24:00
2:00 AM,69.8,68.0,94,29.89,3.1,WNW,2.3,-,N/A,,Light Drizzle,300,2012-10-24 08:00:00
2:37 AM,68.0,66.2,94,29.88,1.9,WSW,2.3,-,N/A,Rain,Rain,250,2012-10-24 08:37:00
3:00 AM,67,66,94,29.76,0,WSW,5.8,,,Rain,Heavy Rain,250,2012-10-24 09:00:00
3:00 AM,68.0,66.2,94,29.89,0.9,WSW,5.8,-,N/A,Rain,Heavy Rain,250,2012-10-24 09:00:00
4:00 AM,68.0,66.2,94,29.90,1.9,WSW,3.5,-,N/A,Rain,Light Rain,240,2012-10-24 10:00:00
5:00 AM,66.2,66.2,100,29.92,2.5,WSW,4.6,-,N/A,,Drizzle,240,2012-10-24 11:00:00
6:00 AM,67,66,95,29.82,2,WNW,4.6,,,Rain,Light Rain,300,2012-10-24 12:00:00
6:00 AM,68.0,66.2,94,29.95,5.6,WNW,4.6,-,N/A,Fog-Rain,Light Rain,300,2012-10-24 12:00:00
7:00 AM,68.0,66.2,94,29.96,6.2,NNW,5.8,-,N/A,Fog,Mostly Cloudy,330,2012-10-24 13:00:00
8:00 AM,71.6,68.0,88,29.97,6.2,SSW,2.3,-,N/A,,Mostly Cloudy,210,2012-10-24 14:00:00
9:00 AM,74,66,70,29.83,9,SW,5.8,,,,Partly Cloudy,230,2012-10-24 15:00:00
9:00 AM,73.4,66.2,78,29.98,6.2,SW,5.8,-,N/A,,Mostly Cloudy,230,2012-10-24 15:00:00
10:00 AM,75.2,66.2,73,29.96,6.2,SW,6.9,-,N/A,,Mostly Cloudy,220,2012-10-24 16:00:00
10:24 AM,71.6,66.2,83,29.96,6.2,SW,8.1,-,N/A,Rain,Light Rain,230,2012-10-24 16:24:00
11:00 AM,71.6,68.0,88,29.95,6.2,West,3.5,-,N/A,Rain,Light Rain,270,2012-10-24 17:00:00
12:00 PM,71,67,84,29.78,9,West,12.7,,,Fog,Light Fog,260,2012-10-24 18:00:00
12:00 PM,71.6,68.0,88,29.92,6.2,West,12.7,-,N/A,Fog,Mostly Cloudy,260,2012-10-24 18:00:00
1:00 PM,68.0,66.2,94,29.91,3.1,West,11.5,-,N/A,Rain,Light Rain,270,2012-10-24 19:00:00
2:00 PM,68.0,66.2,94,29.89,1.2,West,6.9,-,N/A,Rain,Light Rain,280,2012-10-24 20:00:00
3:00 PM,68,66,92,29.76,1,WSW,6.9,,,Rain,Heavy Rain,250,2012-10-24 21:00:00
3:00 PM,68.0,66.2,94,29.89,1.2,WSW,6.9,-,N/A,Rain,Rain,250,2012-10-24 21:00:00
4:00 PM,68.0,66.2,94,29.90,3.1,West,4.6,-,N/A,,Drizzle,270,2012-10-24 22:00:00
5:00 PM,68.0,66.2,94,29.91,6.2,NNW,3.5,-,N/A,Fog,Mostly Cloudy,330,2012-10-24 23:00:00
6:00 PM,68,66,90,29.82,6,West,4.6,,,Rain,Light Drizzle,280,2012-10-25 00:00:00
6:00 PM,68.0,66.2,94,29.93,6.2,West,4.6,-,N/A,Fog,Light Drizzle,280,2012-10-25 00:00:00
7:00 PM,68.0,66.2,94,29.93,6.2,NW,2.3,-,N/A,,Mostly Cloudy,310,2012-10-25 01:00:00
8:00 PM,68.0,66.2,94,29.94,6.2,Calm,Calm,-,N/A,,Mostly Cloudy,0,2012-10-25 02:00:00
9:00 PM,68,65,88,29.84,12,West,2.3,,,,Overcast,280,2012-10-25 03:00:00
9:00 PM,68.0,66.2,94,29.96,6.2,West,2.3,-,N/A,,Mostly Cloudy,280,2012-10-25 03:00:00
10:00 PM,68.0,66.2,94,29.97,6.2,NW,4.6,-,N/A,,Mostly Cloudy,310,2012-10-25 04:00:00
11:00 PM,68.0,66.2,94,29.97,6.2,West,4.6,-,N/A,,Mostly Cloudy,280,2012-10-25 05:00:00